RH
51 50 45 40 37 35 32 29 25 19 15 12 8 5 4 10 16 20 30 36 40 52 60 69 80 90 77 70 92 100 51 95 99 100 100 100 89 93 98 97 100 93 97 97 97 92 100 94 100 98 89 100 85 64
50 50 46 41 40 38 37 33 29 23 17 14 10 6 4 7 14 17 25 30 34 40 59 70 91 90 97 94 82 86 99 93 100 100 100 99 100 90 90 94 99 93 98 100 100 100 100 100 100 91 82 45 26 22
49 49 47 46 45 43 41 38 33 27 21 17 13 9 5 4 10 16 19 25 31 35 39 94 72 88 100 80 65 96 99 92 91 89 95 100 100 100 100 100 97 99 99 100 100 100 99 97 79 45 25 21 24 26
45 49 52 52 51 49 46 44 39 32 25 20 16 11 8 5 6 12 19 23 34 42 47 60 53 83 92 63 61 69 71 97 87 97 97 85 78 62 98 100 90 100 100 100 100 100 81 57 32 26 28 25 24 24
46 48 52 55 55 55 54 51 48 40 31 24 19 14 11 7 5 7 15 23 31 40 46 47 78 66 97 48 43 65 60 52 73 84 100 100 86 70 60 65 83 87 79 88 99 80 39 33 24 24 28 34 32 29
51 52 53 55 57 57 59 59 58 50 40 30 24 18 14 10 7 6 8 14 25 34 42 49 45 61 65 78 60 66 61 69 69 71 76 84 71 45 54 51 42 36 29 28 33 33 34 32 34 35 32 28 33 38
56 55 56 57 59 61 62 63 65 61 54 41 30 24 19 15 10 8 7 8 16 27 36 55 79 100 34 60 75 77 61 38 42 40 70 86 85 84 70 79 100 66 49 41 43 45 48 43 39 44 43 39 29 25
62 62 63 64 65 66 67 68 68 67 66 57 40 31 24 20 16 11 8 7 9 16 22 22 66 89 33 85 99 64 98 86 80 75 73 72 73 65 69 63 54 58 65 47 36 36 46 61 46 37 33 32 29 26
64 64 65 66 69 71 73 74 73 71 70 69 58 42 29 27 21 15 14 9 8 10 13 13 30 94 54 70 64 74 61 72 96 53 61 52 37 54 71 71 86 82 95 75 71 40 54 42 42 40 36 29 29 26
59 56 55 58 64 69 73 78 80 78 75 74 73 60 42 34 27 22 15 13 9 9 10 12 26 92 64 79 78 82 76 67 67 69 46 36 47 56 80 83 61 86 97 81 69 55 54 52 47 43 38 34 28 26
49 50 52 53 55 58 65 73 79 83 83 82 79 76 63 43 33 28 23 19 14 11 9 11 14 24 50 58 79 78 67 73 61 60 50 55 67 80 55 66 50 52 59 60 76 85 80 58 51 47 39 33 27 28
36 39 42 48 50 50 54 57 65 78 83 87 86 82 77 63 48 38 30 24 21 15 11 10 12 12 15 15 32 60 49 29 31 61 46 63 72 70 60 57 34 46 58 72 92 92 83 66 53 45 43 43 36 27
23 20 22 27 39 45 44 50 57 65 74 83 86 87 84 76 66 46 37 34 28 25 20 15 12 10 11 14 21 22 17 39 74 73 73 78 85 76 62 64 56 64 80 89 91 88 87 79 58 48 47 49 44 36
29 24 20 17 18 30 39 40 50 57 59 68 78 82 86 84 83 75 55 38 35 33 30 26 20 18 14 9 9 10 14 15 17 35 40 83 92 75 56 58 68 55 62 73 78 78 77 76 75 68 62 58 53 41
43 36 32 24 19 19 28 37 35 44 55 58 63 71 79 87 87 89 84 67 42 38 40 38 32 30 23 22 16 13 12 9 11 32 93 62 51 40 20 31 52 58 66 68 62 61 64 71 76 72 61 53 50 44
70 58 49 49 32 23 22 24 28 28 40 55 60 66 70 84 91 90 91 89 84 55 46 49 47 42 38 34 30 26 22 18 18 25 9 8 8 10 14 19 19 22 32 44 51 53 54 58 67 76 75 68 56 48
97 89 85 90 76 45 30 22 21 22 25 44 58 64 70 77 85 88 89 91 91 94 83 68 63 60 59 47 43 40 38 34 30 29 26 24 22 19 15 11 8 8 10 15 20 28 37 53 70 89 96 96 86 63
100 100 100 100 100 95 77 47 29 24 23 25 38 52 64 75 79 83 88 96 95 93 94 96 86 78 80 78 67 56 51 48 46 42 39 36 35 33 31 27 22 16 12 9 8 7 8 14 32 60 87 100 100 100
100 100 100 100 100 100 100 88 75 53 30 25 26 35 54 68 80 85 89 95 97 96 98 100 99 100 94 94 93 87 75 66 62 59 56 50 45 40 36 34 31 28 23 16 11 8 7 7 8 9 12 25 70 99
100 100 100 100 100 100 99 100 96 84 57 35 30 29 42 62 71 82 85 87 90 95 100 100 100 87 95 100 99 98 98 93 86 78 68 60 51 42 41 40 36 31 25 18 12 9 6 6 6 8 11 16 20 40
100 100 100 100 99 98 98 100 100 97 81 56 40 36 46 62 66 73 85 82 82 99 100 100 90 84 91 100 100 100 100 100 100 96 83 68 52 45 45 43 39 33 26 19 14 9 6 5 6 7 9 12 20 29
100 100 100 100 100 98 98 100 100 100 94 84 63 55 60 65 64 68 84 83 81 90 94 100 100 100 100 100 100 100 100 100 100 100 96 79 57 51 48 43 41 38 32 21 15 9 6 5 6 10 15 17 14 28
100 100 100 100 100 90 90 100 99 100 91 90 86 76 69 64 64 69 83 86 80 76 73 92 100 100 100 100 100 100 100 100 100 100 100 88 66 56 52 48 50 44 38 24 19 10 6 6 8 15 19 20 17 16
100 100 100 100 92 79 81 86 97 100 94 96 91 80 70 65 60 76 94 84 71 73 79 96 100 100 100 100 100 100 100 100 100 100 100 92 75 62 57 58 57 47 41 30 23 14 7 6 10 17 21 22 18 16
100 100 96 82 78 74 79 86 99 100 98 94 80 74 67 65 62 76 92 79 75 81 94 100 100 95 96 100 100 100 100 100 100 100 100 95 85 70 65 65 61 48 43 36 27 20 9 7 10 20 22 24 25 21
97 94 84 73 71 79 83 85 100 100 97 91 84 75 71 63 64 73 83 83 82 99 100 100 100 98 98 100 100 100 100 100 100 100 100 99 93 79 74 72 66 55 48 44 35 27 14 9 9 18 24 24 29 34
92 78 70 75 79 85 85 97 100 100 97 94 83 82 79 71 71 81 84 83 85 99 100 100 100 100 100 100 100 100 100 100 100 100 100 100 99 88 84 78 71 62 54 50 45 34 23 13 11 13 25 27 28 38
83 78 73 84 88 92 93 97 100 100 96 91 86 84 76 72 76 80 79 84 89 98 100 100 100 100 100 100 100 100 100 100 100 100 100 100 100 95 91 85 80 69 60 57 53 43 33 22 14 13 18 30 30 34
74 77 94 100 100 100 98 100 100 95 91 80 72 69 70 82 90 79 79 89 96 99 100 100 100 100 100 100 100 100 100 100 100 100 100 100 100 100 97 89 85 78 70 64 62 56 44 36 25 16 15 22 34 35
80 96 100 100 100 100 100 99 90 84 72 66 69 73 73 82 91 88 90 92 93 96 97 96 99 100 100 98 100 100 99 97 100 100 100 100 100 100 98 90 87 85 79 74 71 67 61 49 39 27 18 18 26 38
100 100 100 100 99 100 93 82 77 74 75 80 81 79 86 86 85 85 86 90 89 86 86 90 99 100 100 100 95 94 97 100 100 100 100 100 100 100 96 90 90 91 90 85 79 75 73 67 54 44 29 20 20 28
100 100 100 98 94 91 89 84 78 76 80 81 89 87 83 82 82 80 80 79 72 71 74 79 92 100 100 100 100 100 100 100 100 100 100 100 100 100 94 90 92 94 96 93 86 83 80 76 69 58 49 31 21 22
100 100 100 99 96 93 94 91 82 84 91 94 91 93 91 85 76 73 79 80 78 88 98 100 100 100 100 100 100 100 100 100 100 100 100 100 100 100 97 94 98 97 99 97 90 88 87 84 79 69 63 50 32 23
Wind_Speed
15 15 14 15 18 20 23 25 26 27 30 33 35 35 32 25 20 19 20 20 22 20 20 18 17 14 6 6 4 3 2 4 5 2 0 5 6 6 8 11 16 16 18 14 15 21 26 28 28 26 23 24 25 28
14 13 13 14 15 17 20 22 23 25 27 30 33 34 33 27 21 18 19 20 21 19 18 17 15 14 13 5 6 6 2 3 4 1 2 2 1 4 6 7 8 14 18 11 17 14 25 26 24 22 23 23 24 25
12 12 12 13 13 15 17 19 20 22 24 27 30 32 32 29 22 17 16 15 15 16 17 16 16 14 12 5 1 4 4 5 2 2 3 2 3 4 2 5 7 8 18 18 15 19 21 18 19 19 21 23 24 25
11 12 12 12 13 14 16 18 19 20 22 24 27 29 30 29 26 19 15 13 14 15 14 15 13 13 10 5 8 5 5 3 5 4 3 1 4 5 6 7 10 2 8 13 15 19 18 17 20 21 24 26 29 31
9 10 10 11 12 14 15 17 17 18 19 22 24 26 28 29 27 23 17 15 15 16 16 15 14 11 8 4 3 2 2 4 3 5 5 1 5 5 3 5 7 11 10 11 14 14 16 22 24 27 30 34 35 34
10 9 8 9 11 13 14 16 18 18 18 19 21 24 25 27 27 25 20 18 16 16 17 18 15 9 4 1 4 7 6 4 3 5 8 8 9 8 8 10 15 17 17 17 21 22 25 27 28 25 21 21 21 20
11 10 10 10 11 12 13 15 16 17 17 18 19 20 23 25 26 25 23 20 17 16 19 19 12 5 7 4 1 3 11 13 10 10 11 11 12 13 13 15 17 20 19 18 17 16 16 15 16 15 13 14 16 20
13 11 11 11 12 13 13 14 15 17 17 17 17 18 20 22 23 25 25 24 20 17 18 20 6 3 6 6 3 4 4 4 5 6 7 10 12 13 16 20 19 19 20 18 20 17 15 13 10 9 10 13 17 21
13 12 11 11 11 12 14 14 15 16 17 17 16 16 17 18 21 22 23 24 23 19 18 19 8 1 5 6 7 8 9 9 9 9 12 13 15 17 18 18 21 23 22 20 18 14 11 7 7 8 10 13 18 24
13 11 10 9 10 11 12 14 15 15 16 17 16 15 16 16 17 18 20 22 22 21 18 17 15 6 2 6 8 11 13 14 14 14 14 14 15 15 16 17 15 11 8 10 10 9 8 7 7 8 13 18 21 25
14 12 11 9 9 11 12 14 15 17 16 16 16 16 15 14 14 15 16 17 19 20 20 17 14 10 6 4 10 13 16 16 16 14 12 11 13 15 14 13 10 6 1 6 8 10 9 9 10 11 14 18 20 25
16 15 13 12 12 12 12 15 15 16 18 19 18 17 16 15 14 13 14 14 15 16 16 17 14 14 12 11 7 8 13 15 13 13 12 11 15 15 13 11 9 7 6 8 11 12 13 14 14 14 15 17 20 22
20 19 18 17 16 16 16 17 18 18 18 18 19 19 18 18 16 14 13 13 13 13 14 14 15 14 13 12 11 10 10 8 9 9 9 10 14 16 15 12 10 11 12 14 16 17 18 20 20 21 20 19 18 19
23 21 21 21 19 19 19 19 19 20 20 20 20 20 20 19 18 17 15 13 12 12 12 13 12 13 14 13 14 13 12 13 13 13 14 12 17 19 18 18 17 19 21 22 23 24 23 25 25 24 22 20 19 19
27 25 24 24 22 21 21 21 21 21 23 23 24 22 20 19 19 20 18 16 15 14 13 13 13 12 13 13 14 14 15 15 14 11 9 16 19 23 23 23 24 26 28 29 30 30 30 30 30 29 27 26 24 22
32 30 28 27 26 25 23 24 24 23 24 25 25 25 23 20 19 20 20 20 19 17 17 16 15 13 13 13 13 14 14 15 14 14 17 18 19 20 21 22 26 29 32 34 36 38 38 38 37 37 36 34 32 29
38 35 34 32 30 28 26 25 25 25 25 25 25 27 24 22 23 21 21 21 21 21 21 19 19 17 16 14 14 15 15 15 16 17 19 19 20 21 22 22 23 25 28 32 36 40 42 42 42 41 39 37 36 34
40 38 37 35 34 33 31 28 26 25 26 28 28 30 28 25 23 23 21 23 23 24 23 23 23 23 20 19 18 17 17 18 17 17 19 20 21 22 23 25 26 27 29 30 32 32 34 39 44 46 46 43 39 38
43 41 40 37 35 34 33 30 29 27 27 29 30 30 31 31 26 23 22 22 23 25 26 24 24 26 26 24 22 21 20 20 21 21 21 21 24 24 25 26 28 30 31 32 33 33 35 36 37 37 39 44 47 45
41 42 40 38 37 35 34 32 31 30 28 29 30 32 32 32 31 27 22 22 23 24 24 23 24 28 26 28 27 25 24 23 22 22 23 22 23 25 26 28 30 31 33 35 36 36 36 35 37 38 37 36 38 40
38 40 39 39 38 37 36 34 34 32 30 29 30 31 31 34 35 33 26 22 20 21 22 24 27 29 25 26 28 28 27 25 25 23 23 25 24 25 27 29 31 32 35 36 38 38 37 36 35 36 36 35 35 36
35 40 42 42 40 39 38 36 36 33 33 31 30 33 32 33 35 36 29 22 22 28 29 29 29 29 26 25 27 27 27 27 26 25 24 24 25 25 27 29 32 34 36 37 39 39 38 36 32 31 30 28 30 34
32 35 38 40 39 39 36 34 34 33 34 31 31 33 35 35 36 36 32 23 26 33 33 30 27 27 27 25 25 26 26 26 26 25 25 25 25 26 27 29 33 35 35 37 39 40 38 36 30 25 23 22 23 31
35 36 37 37 38 38 36 34 33 32 32 30 31 33 34 35 38 38 29 28 30 30 31 30 27 28 28 26 25 26 26 26 25 25 25 25 26 26 27 30 34 35 35 37 39 41 39 36 30 24 20 18 17 22
37 37 39 40 39 38 36 34 32 31 30 30 32 34 36 39 41 38 30 31 28 27 25 21 18 17 18 21 23 25 26 25 25 24 25 25 26 27 28 31 34 35 35 36 39 41 38 36 31 24 20 17 15 16
41 42 41 39 37 37 35 34 33 31 33 33 33 35 38 41 40 37 31 29 28 25 23 21 22 22 22 22 23 25 25 25 25 24 24 24 26 27 29 31 33 34 34 36 38 40 39 36 33 26 21 17 15 15
43 42 39 38 38 36 36 35 35 34 33 33 36 38 40 42 38 33 31 31 30 27 26 26 27 30 32 29 25 25 25 26 25 24 25 25 26 27 28 30 32 34 35 35 37 38 39 36 33 29 23 19 16 15
41 41 40 38 39 37 37 37 36 34 35 36 38 40 41 38 34 32 31 30 30 29 30 29 28 29 30 30 28 28 28 27 25 25 24 24 25 27 28 29 32 34 35 35 36 37 38 37 34 31 26 21 18 16
40 39 38 37 38 38 38 36 35 36 38 40 40 39 36 34 33 33 32 30 29 30 31 31 27 26 29 28 28 29 28 26 25 25 24 24 24 26 27 28 30 32 34 34 34 36 37 37 35 32 30 25 21 18
39 39 39 39 39 38 37 38 40 41 40 39 36 35 34 31 30 31 29 30 31 32 34 34 30 28 30 28 29 30 30 28 25 25 24 23 24 25 26 27 29 32 34 34 33 35 36 36 36 33 31 29 25 21
38 38 39 39 39 39 41 41 40 39 38 37 37 36 33 32 32 32 33 35 36 36 35 35 33 32 31 28 27 29 28 26 25 24 23 23 24 25 26 26 28 31 33 33 32 33 34 35 35 35 32 30 28 24
34 36 37 38 38 37 38 37 37 36 36 35 33 34 35 35 34 32 31 35 36 35 35 34 32 29 30 28 27 27 27 26 24 24 23 22 24 25 24 25 28 30 32 33 32 31 33 33 33 34 34 32 30 28
33 35 38 38 38 37 38 40 39 38 37 37 37 35 35 33 33 31 30 32 33 30 27 25 26 26 26 25 25 25 25 25 24 24 23 23 24 24 23 26 28 29 32 32 31 30 31 32 32 33 34 33 32 30
Wind_Direction
289 294 299 311 321 327 330 334 343 352 357 2 2 1 354 345 337 329 329 337 347 356 3 2 358 7 42 110 123 184 206 287 245 170 108 312 269 247 257 250 235 235 237 255 250 244 243 247 253 261 259 260 264 265
289 291 297 308 317 325 330 334 344 352 358 2 4 4 359 350 343 334 326 329 337 341 349 360 7 9 7 315 296 294 197 244 201 291 340 296 222 249 256 257 265 235 212 220 211 236 233 241 256 258 259 262 270 271
289 288 293 301 313 322 329 335 344 351 358 2 4 6 4 357 347 342 334 328 337 343 347 352 2 359 4 4 141 108 111 153 11 333 339 191 189 224 344 261 222 269 228 234 233 243 244 257 259 263 266 272 271 271
288 286 292 302 313 323 330 335 341 350 356 1 4 6 7 4 357 346 337 326 331 337 349 351 348 359 9 53 54 117 167 331 91 24 227 307 297 234 259 238 218 254 231 232 244 250 262 264 267 274 276 278 276 277
282 290 299 308 314 321 328 333 338 346 353 358 2 5 8 8 5 357 347 333 332 329 336 342 331 341 355 76 170 266 358 224 264 328 11 258 237 209 227 258 253 259 250 238 247 262 279 278 282 281 281 281 283 284
272 282 296 310 319 327 329 334 336 342 348 354 360 3 6 8 9 8 358 350 338 332 330 332 326 298 289 67 230 250 265 301 253 283 308 314 310 292 280 270 278 281 272 265 262 267 272 275 279 283 287 293 299 300
265 277 291 305 317 327 334 336 336 339 341 347 356 360 3 7 9 13 12 3 350 337 335 339 343 311 210 197 215 254 252 264 259 268 283 287 288 286 287 281 275 276 277 279 273 276 278 285 287 292 296 301 308 310
261 271 283 296 307 315 324 332 338 338 336 339 346 354 360 4 7 10 14 15 11 4 359 355 23 60 207 206 236 268 292 277 264 267 272 284 287 301 305 294 290 280 283 279 267 270 282 290 295 298 307 313 316 319
255 263 273 283 297 308 317 323 329 334 334 334 337 344 352 0 4 7 12 15 17 15 14 14 25 84 233 212 249 265 274 278 283 280 281 292 288 298 303 301 300 291 279 256 250 254 274 274 282 299 314 321 325 328
245 251 262 278 293 303 310 317 319 322 328 330 331 334 341 351 358 2 7 12 15 17 17 19 26 20 167 227 259 267 271 275 277 277 286 295 300 298 303 315 329 308 256 227 228 240 250 257 280 306 318 322 330 336
241 248 257 271 285 301 310 314 316 317 318 321 325 327 329 335 345 352 360 7 10 14 15 17 16 16 5 235 247 262 262 267 276 279 285 292 298 295 299 317 335 347 221 202 224 232 245 261 277 306 327 334 339 346
246 253 263 275 285 297 309 312 317 315 315 316 318 323 322 322 328 335 347 356 4 6 9 12 7 6 360 357 326 290 282 277 279 275 278 277 282 285 285 302 288 281 258 247 249 250 260 268 279 294 312 322 333 347
248 256 261 267 277 289 300 309 317 318 316 316 315 317 321 318 316 317 324 337 346 355 359 1 3 6 1 357 348 332 316 297 278 278 286 280 277 276 270 276 269 259 262 266 272 272 273 275 277 285 294 302 316 328
247 255 262 266 269 276 284 296 308 316 320 321 316 313 316 316 314 310 306 313 322 331 340 346 351 354 355 354 347 342 340 325 311 284 289 281 275 280 275 265 261 257 261 266 270 272 272 271 274 276 283 292 298 308
245 250 257 264 268 271 276 283 292 303 312 319 320 322 318 315 312 309 305 300 302 306 316 323 330 336 340 344 342 343 343 344 340 327 298 286 288 287 282 275 270 265 264 265 267 271 272 270 269 271 274 279 284 288
244 249 253 258 265 267 271 276 282 288 298 307 316 322 324 315 308 307 306 304 297 291 295 302 307 316 321 325 329 334 335 336 339 334 328 321 314 308 298 288 280 274 271 270 271 272 273 273 273 271 271 273 276 276
246 248 253 256 260 265 269 272 276 280 286 292 307 314 321 315 307 306 304 303 300 293 285 286 291 298 303 306 310 316 323 327 330 330 328 329 329 330 326 320 312 303 295 288 282 276 274 273 272 272 273 273 272 270
246 248 252 256 258 261 265 270 273 277 279 284 293 303 314 316 311 308 307 301 299 298 295 287 286 287 290 293 298 301 307 311 314 317 319 322 323 326 328 328 325 320 314 308 301 295 287 278 272 269 267 265 264 263
244 242 246 252 257 261 263 265 269 273 277 281 284 291 304 310 314 311 303 301 298 298 299 296 292 284 284 285 288 291 294 299 306 312 315 318 318 319 322 323 325 325 325 321 316 309 303 296 288 278 270 264 259 257
244 244 246 251 255 259 263 266 269 272 275 280 283 286 295 304 310 310 305 297 295 299 298 296 285 286 286 283 284 286 288 291 296 304 308 313 315 317 319 321 322 324 325 325 323 319 314 305 295 287 279 269 260 253
244 245 246 250 255 259 263 267 270 273 275 279 282 284 292 299 303 307 307 303 298 295 287 284 284 289 291 285 283 283 285 289 292 297 304 310 315 317 321 323 324 323 326 329 328 325 321 315 303 291 282 270 259 251
244 245 247 251 256 261 266 272 273 276 277 280 280 282 287 293 298 301 306 305 297 285 286 286 286 288 288 283 281 283 285 287 289 292 298 305 310 314 320 324 328 327 326 330 331 330 329 326 316 303 292 280 255 245
246 247 249 253 258 263 268 271 274 277 278 278 279 283 286 290 293 296 302 301 287 287 294 290 284 280 282 283 280 280 282 284 286 289 293 301 306 311 317 323 328 330 330 332 335 335 336 335 328 315 303 288 266 244
239 242 246 250 255 261 266 268 270 271 273 275 278 280 282 286 288 292 302 295 297 296 293 291 282 277 278 277 277 277 278 282 284 286 289 296 303 308 313 320 328 332 332 335 341 340 341 342 339 330 319 302 280 253
239 241 244 249 253 258 261 263 266 269 272 272 276 278 282 283 285 290 298 296 294 293 293 286 278 277 279 278 277 275 276 279 280 282 286 293 300 305 311 319 328 333 334 336 343 345 345 346 345 338 330 313 291 270
238 242 246 251 255 257 261 263 266 267 270 274 275 277 278 279 283 290 294 290 284 283 280 272 275 279 280 281 278 274 273 275 278 281 284 288 296 303 308 315 326 333 336 336 340 347 349 349 348 344 335 325 303 282
239 246 249 251 255 257 259 261 265 268 271 273 272 273 274 278 285 292 288 284 277 274 273 274 277 280 280 278 275 269 269 272 273 277 280 285 294 301 305 312 321 329 334 336 340 346 351 351 350 347 338 329 317 296
243 247 250 253 255 257 260 264 266 267 267 268 268 270 275 282 286 285 282 277 271 271 273 280 285 287 286 275 266 266 266 268 268 272 276 282 290 298 304 309 317 326 331 334 338 344 350 352 351 349 343 333 323 308
246 248 249 252 255 257 260 262 264 263 264 265 269 274 276 278 281 280 277 271 268 273 276 279 283 295 293 274 257 258 262 264 264 268 273 278 288 296 302 307 313 322 329 331 334 339 347 353 352 350 347 340 330 318
247 249 250 251 254 257 260 260 259 260 264 267 271 272 274 277 271 270 273 276 276 276 276 280 279 288 293 281 261 255 261 264 259 263 269 276 285 294 300 304 310 317 325 329 329 332 338 347 352 351 349 344 336 325
249 250 251 252 251 251 252 256 260 263 265 266 267 269 270 267 269 273 275 277 277 277 277 278 279 275 284 280 266 262 265 263 259 261 266 274 284 293 297 302 307 313 322 327 327 327 332 339 347 352 349 346 341 331
240 242 244 247 250 252 254 256 258 258 260 262 264 267 269 272 275 274 276 275 276 277 278 277 276 272 274 271 265 267 263 256 257 258 264 273 286 292 295 301 306 312 319 325 324 324 328 335 340 346 349 345 342 336
237 239 241 245 248 250 252 255 258 259 262 264 265 267 269 271 273 275 274 273 274 277 278 273 271 270 268 266 264 259 251 254 255 258 262 274 290 292 294 299 305 310 316 321 321 321 324 329 335 340 343 344 341 337